Location: Ostrava
(49.8330°N, 18.2830°E)
Time: 00:10:27
(UTC+02:00)

NOAA 19 - Visible Passes

Search period start: 22 September 2014 00:00
Search period end: 02 October 2014 00:00
Orbit: 843 x 863 km, 99.0° (Epoch: 21 September)

Date Brightness Start Highest point End Pass type
(mag) Time Alt. Az. Time Alt. Az. Time Alt. Az.
22 Sep 6.2 02:35:46 10° NNE 02:40:21 40° E 02:40:21 40° E visible
22 Sep 5.9 04:16:40 10° N 04:21:40 36° WNW 04:22:24 35° W visible
23 Sep 6.6 02:24:50 10° NNE 02:29:02 33° ENE 02:29:02 33° ENE visible
23 Sep 5.6 04:05:30 10° N 04:10:41 43° WNW 04:11:05 42° WNW visible
24 Sep 6.9 02:13:57 10° NE 02:17:43 27° ENE 02:17:43 27° ENE visible
24 Sep 5.4 03:54:21 10° N 03:59:41 51° WNW 03:59:46 51° WNW visible
24 Sep 7.2 05:37:40 10° NNW 05:39:13 11° NW 05:40:45 10° WNW visible
25 Sep 7.2 02:03:08 10° NE 02:06:24 22° ENE 02:06:24 22° ENE visible
25 Sep 5.3 03:43:13 10° N 03:48:27 62° WNW 03:48:27 62° WNW visible
25 Sep 7.1 05:25:51 10° NNW 05:28:21 13° NW 05:30:30 11° WNW visible
26 Sep 7.4 01:52:24 10° NE 01:55:05 18° ENE 01:55:05 18° ENE visible
26 Sep 5.2 03:32:06 10° NNE 03:37:08 70° NNW 03:37:08 70° NNW visible
26 Sep 6.9 05:14:20 10° NNW 05:17:28 16° NW 05:19:11 14° WNW visible
27 Sep 7.6 01:41:48 10° NE 01:43:47 15° ENE 01:43:47 15° ENE visible
27 Sep 5.4 03:21:01 10° NNE 03:25:49 69° NNE 03:25:49 69° NNE visible
27 Sep 6.7 05:02:55 10° NNW 05:06:35 18° NW 05:07:52 17° WNW visible
28 Sep 7.8 01:31:29 10° ENE 01:32:28 12° ENE 01:32:28 12° ENE visible
28 Sep 5.6 03:09:57 10° NNE 03:14:31 60° NE 03:14:31 60° NE visible
28 Sep 6.5 04:51:35 10° N 04:55:40 22° NW 04:56:33 21° WNW visible
29 Sep 5.9 02:58:55 10° NNE 03:03:11 50° NE 03:03:11 50° NE visible
29 Sep 6.3 04:40:19 10° N 04:44:44 25° WNW 04:45:14 25° WNW visible
30 Sep 6.3 02:47:54 10° NNE 02:51:52 41° NE 02:51:52 41° NE visible
30 Sep 6.1 04:29:04 10° N 04:33:47 30° WNW 04:33:55 30° WNW visible
01 Oct 6.6 02:36:56 10° NNE 02:40:33 34° ENE 02:40:33 34° ENE visible
01 Oct 5.9 04:17:51 10° N 04:22:36 35° WNW 04:22:36 35° WNW visible
